Time,TemperatureF,DewpointF,PressureIn,WindDirection,WindDirectionDegrees,WindSpeedMPH,WindSpeedGustMPH,Humidity,HourlyPrecipIn,Conditions,Clouds,dailyrainin,SoftwareType,DateUTC
2013-08-24 00:01:00,81.0,75.7,30.04,ESE,117,5.0,6.0,84,0.00,,CLR,0.00,VWS V14.01,2013-08-24 04:01:00,
2013-08-24 00:06:00,81.0,75.7,30.03,SE,130,4.0,6.0,84,0.00,,CLR,0.00,VWS V14.01,2013-08-24 04:06:00,
2013-08-24 00:11:00,80.9,75.3,30.03,SE,131,0.0,6.0,83,0.00,,CLR,0.00,VWS V14.01,2013-08-24 04:11:00,
2013-08-24 00:16:00,81.0,75.7,30.03,SE,131,0.0,6.0,84,0.00,,CLR,0.00,VWS V14.01,2013-08-24 04:16:00,
2013-08-24 00:21:00,81.0,75.3,30.03,SE,138,2.0,6.0,83,0.00,,CLR,0.00,VWS V14.01,2013-08-24 04:21:00,
2013-08-24 00:26:00,81.1,75.8,30.03,SE,138,0.0,6.0,84,0.00,,CLR,0.00,VWS V14.01,2013-08-24 04:26:00,
2013-08-24 00:31:00,81.2,76.3,30.03,SE,135,1.0,6.0,85,0.00,,CLR,0.00,VWS V14.01,2013-08-24 04:31:00,
2013-08-24 00:36:00,81.3,76.4,30.04,SE,131,0.0,6.0,85,0.00,,CLR,0.00,VWS V14.01,2013-08-24 04:36:00,
2013-08-24 00:41:00,81.3,76.4,30.03,SE,137,4.0,8.0,85,0.00,,CLR,0.00,VWS V14.01,2013-08-24 04:41:00,
2013-08-24 00:46:00,81.4,76.8,30.04,SE,132,2.0,8.0,86,0.00,,CLR,0.00,VWS V14.01,2013-08-24 04:46:00,
2013-08-24 00:51:00,81.4,76.8,30.03,ESE,122,2.0,8.0,86,0.00,,CLR,0.00,VWS V14.01,2013-08-24 04:51:00,
2013-08-24 00:56:00,81.4,76.8,30.03,SE,126,4.0,8.0,86,0.00,,CLR,0.00,VWS V14.01,2013-08-24 04:56:00,
2013-08-24 01:01:00,81.4,76.8,30.03,SE,146,0.0,0.0,86,0.00,,CLR,0.00,VWS V14.01,2013-08-24 05:01:00,
2013-08-24 01:06:00,81.5,76.6,30.04,SE,146,0.0,0.0,85,0.00,,CLR,0.00,VWS V14.01,2013-08-24 05:06:00,
2013-08-24 01:11:00,81.5,76.9,30.04,SE,146,0.0,1.0,86,0.00,,CLR,0.00,VWS V14.01,2013-08-24 05:11:00,
2013-08-24 01:16:00,81.5,76.9,30.04,SE,146,0.0,1.0,86,0.00,,CLR,0.00,VWS V14.01,2013-08-24 05:16:00,
2013-08-24 01:21:00,81.5,76.9,30.05,SSE,147,0.0,1.0,86,0.00,,CLR,0.00,VWS V14.01,2013-08-24 05:21:00,
2013-08-24 01:26:00,81.5,76.9,30.04,SSE,147,0.0,1.0,86,0.00,,CLR,0.00,VWS V14.01,2013-08-24 05:26:00,
2013-08-24 01:31:00,81.5,76.9,30.04,SE,146,0.0,1.0,86,0.00,,CLR,0.00,VWS V14.01,2013-08-24 05:31:00,
2013-08-24 01:36:00,81.5,76.9,30.03,SE,146,0.0,1.0,86,0.00,,CLR,0.00,VWS V14.01,2013-08-24 05:36:00,
2013-08-24 01:41:00,81.5,76.6,30.05,SE,146,0.0,1.0,85,0.00,,CLR,0.00,VWS V14.01,2013-08-24 05:41:00,
2013-08-24 01:46:00,81.5,76.9,30.04,SE,146,0.0,1.0,86,0.00,,CLR,0.00,VWS V14.01,2013-08-24 05:46:00,
2013-08-24 01:51:00,81.5,76.9,30.04,SE,145,0.0,1.0,86,0.00,,CLR,0.00,VWS V14.01,2013-08-24 05:51:00,
2013-08-24 01:56:00,81.5,76.9,30.03,SE,146,0.0,1.0,86,0.00,,CLR,0.00,VWS V14.01,2013-08-24 05:56:00,
2013-08-24 02:01:00,81.4,76.8,30.04,SE,146,0.0,0.0,86,0.00,,CLR,0.00,VWS V14.01,2013-08-24 06:01:00,
2013-08-24 02:06:00,81.4,76.8,30.04,SE,146,0.0,0.0,86,0.00,,CLR,0.00,VWS V14.01,2013-08-24 06:06:00,
2013-08-24 02:11:00,81.3,76.7,30.03,SE,146,0.0,0.0,86,0.00,,CLR,0.00,VWS V14.01,2013-08-24 06:11:00,
2013-08-24 02:16:00,81.3,76.7,30.03,SE,146,0.0,0.0,86,0.00,,CLR,0.00,VWS V14.01,2013-08-24 06:16:00,
2013-08-24 02:21:00,81.2,76.6,30.04,SE,145,0.0,0.0,86,0.00,,CLR,0.00,VWS V14.01,2013-08-24 06:21:00,
2013-08-24 02:26:00,81.1,76.9,30.03,SE,140,0.0,0.0,87,0.00,,CLR,0.00,VWS V14.01,2013-08-24 06:26:00,
2013-08-24 02:31:00,81.0,77.1,30.03,SE,139,0.0,0.0,88,0.00,,CLR,0.00,VWS V14.01,2013-08-24 06:31:00,
2013-08-24 02:36:00,81.0,76.8,30.03,SE,140,0.0,0.0,87,0.00,,CLR,0.00,VWS V14.01,2013-08-24 06:36:00,
2013-08-24 02:41:00,81.0,77.1,30.03,SE,139,0.0,0.0,88,0.00,,CLR,0.00,VWS V14.01,2013-08-24 06:41:00,
2013-08-24 02:46:00,80.9,76.7,30.04,SE,124,10.0,10.0,87,0.00,,CLR,0.00,VWS V14.01,2013-08-24 06:46:00,
2013-08-24 02:51:00,80.6,75.7,30.04,ESE,115,3.0,11.0,85,0.02,,CLR,0.02,VWS V14.01,2013-08-24 06:51:00,
2013-08-24 02:56:00,80.1,74.5,30.04,ESE,115,0.0,11.0,83,0.04,,CLR,0.04,VWS V14.01,2013-08-24 06:56:00,
2013-08-24 03:01:00,79.8,74.5,30.04,ESE,115,0.0,0.0,84,0.04,,FEW017,0.04,VWS V14.01,2013-08-24 07:01:00,
2013-08-24 03:06:00,79.6,74.7,30.03,ESE,113,0.0,0.0,85,0.05,,FEW017,0.05,VWS V14.01,2013-08-24 07:06:00,
2013-08-24 03:11:00,79.4,74.5,30.03,ESE,116,0.0,0.0,85,0.05,,FEW017,0.05,VWS V14.01,2013-08-24 07:11:00,
2013-08-24 03:16:00,79.2,74.3,30.03,ESE,116,0.0,0.0,85,0.05,,FEW017,0.05,VWS V14.01,2013-08-24 07:16:00,
2013-08-24 03:21:00,79.1,74.6,30.03,ESE,117,0.0,0.0,86,0.05,,FEW017,0.05,VWS V14.01,2013-08-24 07:21:00,
2013-08-24 03:26:00,78.9,74.4,30.02,ESE,117,0.0,0.0,86,0.05,,FEW017,0.05,VWS V14.01,2013-08-24 07:26:00,
2013-08-24 03:31:00,78.7,74.5,30.04,ESE,117,0.0,0.0,87,0.05,,FEW017,0.05,VWS V14.01,2013-08-24 07:31:00,
2013-08-24 03:36:00,78.6,74.4,30.03,ESE,117,0.0,0.0,87,0.05,,FEW017,0.05,VWS V14.01,2013-08-24 07:36:00,
2013-08-24 03:41:00,78.5,74.3,30.03,ESE,116,0.0,0.0,87,0.05,,FEW017,0.05,VWS V14.01,2013-08-24 07:41:00,
2013-08-24 03:46:00,78.4,75.2,30.02,ESE,108,0.0,0.0,90,0.05,,FEW017,0.05,VWS V14.01,2013-08-24 07:46:00,
2013-08-24 03:51:00,78.3,74.5,30.03,ESE,116,0.0,0.0,88,0.05,,FEW017,0.05,VWS V14.01,2013-08-24 07:51:00,
2013-08-24 03:56:00,78.2,74.4,30.02,ESE,116,0.0,0.0,88,0.05,,FEW017,0.05,VWS V14.01,2013-08-24 07:56:00,
2013-08-24 04:01:00,78.2,74.7,30.02,ESE,114,0.0,0.0,89,0.01,,CLR,0.05,VWS V14.01,2013-08-24 08:01:00,
2013-08-24 04:06:00,78.2,74.7,30.03,ESE,117,0.0,0.0,89,0.01,,CLR,0.05,VWS V14.01,2013-08-24 08:06:00,
2013-08-24 04:11:00,78.2,74.7,30.02,ESE,116,0.0,0.0,89,0.01,,CLR,0.05,VWS V14.01,2013-08-24 08:11:00,
2013-08-24 04:16:00,78.1,74.9,30.02,ESE,114,0.0,0.0,90,0.01,,CLR,0.05,VWS V14.01,2013-08-24 08:16:00,
2013-08-24 04:21:00,78.1,74.9,30.02,ESE,112,0.0,0.0,90,0.01,,CLR,0.05,VWS V14.01,2013-08-24 08:21:00,
2013-08-24 04:26:00,77.9,74.7,30.02,ESE,112,0.0,0.0,90,0.01,,CLR,0.05,VWS V14.01,2013-08-24 08:26:00,
2013-08-24 04:31:00,77.9,74.7,30.01,ESE,116,0.0,0.0,90,0.01,,CLR,0.05,VWS V14.01,2013-08-24 08:31:00,
2013-08-24 04:36:00,77.8,74.6,30.02,ESE,116,0.0,0.0,90,0.01,,CLR,0.05,VWS V14.01,2013-08-24 08:36:00,
2013-08-24 04:41:00,77.7,74.9,30.02,ESE,113,0.0,0.0,91,0.01,,CLR,0.05,VWS V14.01,2013-08-24 08:41:00,
2013-08-24 04:46:00,77.7,74.9,30.02,ESE,114,0.0,0.0,91,0.01,,CLR,0.05,VWS V14.01,2013-08-24 08:46:00,
2013-08-24 04:51:00,77.6,74.8,30.02,ESE,115,0.0,0.0,91,0.01,,,0.05,VWS V14.01,2013-08-24 08:51:00,
2013-08-24 04:56:00,77.7,74.9,30.02,ESE,115,0.0,0.0,91,0.01,,,0.05,VWS V14.01,2013-08-24 08:56:00,
2013-08-24 05:01:00,77.6,74.4,30.02,ESE,116,0.0,0.0,90,0.00,,CLR,0.05,VWS V14.01,2013-08-24 09:01:00,
2013-08-24 05:06:00,77.4,74.6,30.02,ESE,116,0.0,0.0,91,0.00,,CLR,0.05,VWS V14.01,2013-08-24 09:06:00,
2013-08-24 05:11:00,77.4,74.6,30.02,ESE,115,0.0,0.0,91,0.00,,CLR,0.05,VWS V14.01,2013-08-24 09:11:00,
2013-08-24 05:16:00,77.4,74.6,30.02,ESE,112,0.0,0.0,91,0.00,,CLR,0.05,VWS V14.01,2013-08-24 09:16:00,
2013-08-24 05:21:00,77.3,74.5,30.02,ESE,115,0.0,0.0,91,0.00,,CLR,0.05,VWS V14.01,2013-08-24 09:21:00,
2013-08-24 05:26:00,77.3,74.5,30.03,ESE,116,0.0,0.0,91,0.00,,CLR,0.05,VWS V14.01,2013-08-24 09:26:00,
2013-08-24 05:31:00,77.3,74.5,30.02,ESE,116,0.0,0.0,91,0.00,,CLR,0.05,VWS V14.01,2013-08-24 09:31:00,
2013-08-24 05:36:00,77.3,74.5,30.03,ESE,116,0.0,0.0,91,0.00,,CLR,0.05,VWS V14.01,2013-08-24 09:36:00,
2013-08-24 05:41:00,77.3,74.5,30.03,ESE,116,0.0,0.0,91,0.00,,CLR,0.05,VWS V14.01,2013-08-24 09:41:00,
2013-08-24 05:46:00,77.2,74.7,30.03,ESE,116,0.0,0.0,92,0.00,,CLR,0.05,VWS V14.01,2013-08-24 09:46:00,
2013-08-24 05:51:00,77.2,74.4,30.02,ESE,116,0.0,0.0,91,0.00,,CLR,0.05,VWS V14.01,2013-08-24 09:51:00,
2013-08-24 05:56:00,77.2,74.4,30.03,ESE,116,0.0,0.0,91,0.00,,CLR,0.05,VWS V14.01,2013-08-24 09:56:00,
2013-08-24 06:01:00,77.2,74.4,30.03,ESE,116,0.0,0.0,91,0.00,,CLR,0.05,VWS V14.01,2013-08-24 10:01:00,
2013-08-24 06:06:00,77.2,74.7,30.03,ESE,116,0.0,0.0,92,0.00,,CLR,0.05,VWS V14.01,2013-08-24 10:06:00,
2013-08-24 06:11:00,77.1,74.6,30.03,ESE,116,0.0,0.0,92,0.00,,CLR,0.05,VWS V14.01,2013-08-24 10:11:00,
2013-08-24 06:16:00,77.1,74.3,30.03,ESE,116,0.0,0.0,91,0.00,,CLR,0.05,VWS V14.01,2013-08-24 10:16:00,
2013-08-24 06:21:00,77.1,74.6,30.03,ESE,116,0.0,0.0,92,0.00,,CLR,0.05,VWS V14.01,2013-08-24 10:21:00,
2013-08-24 06:26:00,77.0,74.5,30.03,ESE,116,0.0,0.0,92,0.00,,CLR,0.00,VWS V14.01,2013-08-24 10:26:00,
2013-08-24 06:31:00,77.0,74.2,30.04,ESE,116,0.0,0.0,91,0.00,,,0.05,VWS V14.01,2013-08-24 10:31:00,
2013-08-24 06:36:00,77.0,74.5,30.03,ESE,116,0.0,0.0,92,0.00,,,0.05,VWS V14.01,2013-08-24 10:36:00,
2013-08-24 06:41:00,77.0,74.5,30.04,ESE,116,0.0,0.0,92,0.00,,,0.05,VWS V14.01,2013-08-24 10:41:00,
2013-08-24 06:46:00,77.0,74.5,30.04,ESE,116,0.0,0.0,92,0.00,,,0.05,VWS V14.01,2013-08-24 10:46:00,
2013-08-24 06:51:00,77.0,74.5,30.05,ESE,116,0.0,0.0,92,0.00,,,0.05,VWS V14.01,2013-08-24 10:51:00,
2013-08-24 06:56:00,77.0,74.5,30.05,ESE,116,0.0,0.0,92,0.00,,,0.05,VWS V14.01,2013-08-24 10:56:00,
2013-08-24 07:01:00,76.9,74.4,30.05,ESE,115,0.0,0.0,92,0.00,,CLR,0.05,VWS V14.01,2013-08-24 11:01:00,
2013-08-24 07:06:00,76.9,74.4,30.05,ESE,115,0.0,0.0,92,0.00,,CLR,0.05,VWS V14.01,2013-08-24 11:06:00,
2013-08-24 07:11:00,76.9,74.4,30.05,ESE,115,0.0,0.0,92,0.00,,CLR,0.05,VWS V14.01,2013-08-24 11:11:00,
2013-08-24 07:16:00,76.9,74.4,30.06,ESE,115,0.0,0.0,92,0.00,,CLR,0.05,VWS V14.01,2013-08-24 11:16:00,
2013-08-24 07:21:00,76.9,74.4,30.06,ESE,115,0.0,0.0,92,0.00,,CLR,0.05,VWS V14.01,2013-08-24 11:21:00,
2013-08-24 07:26:00,76.9,74.4,30.06,ESE,115,0.0,0.0,92,0.00,,CLR,0.05,VWS V14.01,2013-08-24 11:26:00,
2013-08-24 07:31:00,76.9,74.4,30.06,ESE,115,0.0,0.0,92,0.00,,CLR,0.05,VWS V14.01,2013-08-24 11:31:00,
2013-08-24 07:36:00,77.0,74.8,30.06,ESE,115,0.0,0.0,93,0.00,,CLR,0.05,VWS V14.01,2013-08-24 11:36:00,
2013-08-24 07:41:00,77.1,74.9,30.06,ESE,115,0.0,0.0,93,0.00,,CLR,0.05,VWS V14.01,2013-08-24 11:41:00,
2013-08-24 07:46:00,77.1,74.9,30.07,ESE,115,0.0,0.0,93,0.00,,CLR,0.05,VWS V14.01,2013-08-24 11:46:00,
2013-08-24 07:51:00,77.2,75.0,30.07,ESE,115,0.0,0.0,93,0.00,,CLR,0.05,VWS V14.01,2013-08-24 11:51:00,
2013-08-24 07:56:00,77.4,75.2,30.06,ESE,115,0.0,0.0,93,0.00,,CLR,0.05,VWS V14.01,2013-08-24 11:56:00,
2013-08-24 08:01:00,77.5,75.6,30.07,ESE,115,0.0,0.0,94,0.00,,CLR,0.05,VWS V14.01,2013-08-24 12:01:00,
2013-08-24 08:06:00,77.7,75.5,30.07,ESE,116,0.0,0.0,93,0.00,,CLR,0.05,VWS V14.01,2013-08-24 12:06:00,
2013-08-24 08:11:00,77.9,75.7,30.08,ESE,116,0.0,0.0,93,0.00,,CLR,0.05,VWS V14.01,2013-08-24 12:11:00,
2013-08-24 08:15:00,78.1,76.2,30.08,ESE,115,0.0,0.0,94,0.00,,CLR,0.05,VWS V14.01,2013-08-24 12:15:00,
2013-08-24 08:20:00,78.5,76.6,30.08,ESE,115,0.0,0.0,94,0.00,,CLR,0.05,VWS V14.01,2013-08-24 12:20:00,
2013-08-24 08:25:00,78.7,76.8,30.08,ESE,117,0.0,0.0,94,0.00,,CLR,0.05,VWS V14.01,2013-08-24 12:25:00,
2013-08-24 08:30:00,79.0,77.1,30.08,ESE,116,0.0,0.0,94,0.00,,CLR,0.05,VWS V14.01,2013-08-24 12:30:00,
2013-08-24 08:35:00,79.2,77.7,30.08,ESE,117,0.0,0.0,95,0.00,,CLR,0.05,VWS V14.01,2013-08-24 12:35:00,
2013-08-24 08:40:00,79.4,78.5,30.08,ESE,115,0.0,0.0,97,0.00,,CLR,0.05,VWS V14.01,2013-08-24 12:40:00,
2013-08-24 08:45:00,79.6,77.7,30.08,ESE,117,0.0,0.0,94,0.00,,CLR,0.05,VWS V14.01,2013-08-24 12:45:00,
2013-08-24 08:50:00,79.8,77.9,30.09,ESE,116,0.0,1.0,94,0.00,,CLR,0.05,VWS V14.01,2013-08-24 12:50:00,
2013-08-24 08:55:00,79.8,77.6,30.09,ESE,115,0.0,1.0,93,0.00,,CLR,0.05,VWS V14.01,2013-08-24 12:55:00,
2013-08-24 09:00:00,79.9,77.0,30.09,ESE,115,0.0,0.0,91,0.00,,CLR,0.05,VWS V14.01,2013-08-24 13:00:00,
2013-08-24 09:05:00,80.2,77.0,30.09,ESE,116,0.0,0.0,90,0.00,,CLR,0.05,VWS V14.01,2013-08-24 13:05:00,
2013-08-24 09:10:00,80.3,77.1,30.10,ESE,116,0.0,0.0,90,0.00,,CLR,0.05,VWS V14.01,2013-08-24 13:10:00,
2013-08-24 09:15:00,80.7,77.2,30.09,ESE,116,0.0,0.0,89,0.00,,CLR,0.05,VWS V14.01,2013-08-24 13:15:00,
2013-08-24 09:20:00,81.0,77.5,30.09,ESE,115,0.0,0.0,89,0.00,,CLR,0.05,VWS V14.01,2013-08-24 13:20:00,
2013-08-24 09:25:00,81.3,77.8,30.10,SE,133,3.0,4.0,89,0.00,,CLR,0.05,VWS V14.01,2013-08-24 13:25:00,
2013-08-24 09:30:00,81.6,77.7,30.10,SE,125,0.0,4.0,88,0.00,,CLR,0.05,VWS V14.01,2013-08-24 13:30:00,
2013-08-24 09:35:00,81.9,77.3,30.10,SE,136,0.0,4.0,86,0.00,,CLR,0.05,VWS V14.01,2013-08-24 13:35:00,
2013-08-24 09:40:00,82.3,77.7,30.10,SE,135,0.0,4.0,86,0.00,,CLR,0.05,VWS V14.01,2013-08-24 13:40:00,
2013-08-24 09:45:00,82.6,78.0,30.10,SSE,156,4.0,4.0,86,0.00,,CLR,0.05,VWS V14.01,2013-08-24 13:45:00,
2013-08-24 09:50:00,83.1,78.5,30.10,SSE,158,0.0,5.0,86,0.00,,CLR,0.05,VWS V14.01,2013-08-24 13:50:00,
2013-08-24 09:55:00,83.4,77.3,30.10,South,189,0.0,5.0,82,0.00,,CLR,0.05,VWS V14.01,2013-08-24 13:55:00,
2013-08-24 10:00:00,83.8,77.7,30.11,South,180,4.0,4.0,82,0.00,,SCT023,0.05,VWS V14.01,2013-08-24 14:00:00,
2013-08-24 10:05:00,84.2,77.0,30.10,SSW,205,1.0,5.0,79,0.00,,SCT023,0.05,VWS V14.01,2013-08-24 14:05:00,
2013-08-24 10:10:00,84.5,77.3,30.11,South,173,2.0,5.0,79,0.00,,SCT023,0.05,VWS V14.01,2013-08-24 14:10:00,
2013-08-24 10:15:00,84.9,76.5,30.11,South,174,0.0,5.0,76,0.00,,SCT023,0.05,VWS V14.01,2013-08-24 14:15:00,
2013-08-24 10:20:00,85.1,76.3,30.12,South,172,0.0,5.0,75,0.00,,SCT023,0.05,VWS V14.01,2013-08-24 14:20:00,
2013-08-24 10:25:00,85.4,77.4,30.12,South,170,0.0,5.0,77,0.00,,SCT023,0.05,VWS V14.01,2013-08-24 14:25:00,
2013-08-24 10:30:00,85.6,77.2,30.12,SSE,168,0.0,5.0,76,0.00,,SCT023,0.05,VWS V14.01,2013-08-24 14:30:00,
2013-08-24 10:35:00,85.8,77.0,30.12,SE,141,3.0,5.0,75,0.00,,SCT023,0.05,VWS V14.01,2013-08-24 14:35:00,
2013-08-24 10:40:00,86.1,76.4,30.12,SE,141,0.0,5.0,73,0.00,,SCT023,0.05,VWS V14.01,2013-08-24 14:40:00,
2013-08-24 10:45:00,86.3,76.6,30.12,SE,140,3.0,5.0,73,0.00,,SCT023,0.05,VWS V14.01,2013-08-24 14:45:00,
2013-08-24 10:50:00,86.7,77.8,30.12,SE,132,2.0,5.0,75,0.00,,SCT023,0.05,VWS V14.01,2013-08-24 14:50:00,
2013-08-24 10:55:00,86.7,77.8,30.12,NE,53,4.0,5.0,75,0.00,,SCT023,0.05,VWS V14.01,2013-08-24 14:55:00,
2013-08-24 11:00:00,86.5,76.8,30.12,ENE,63,5.0,5.0,73,0.00,,SCT027,0.05,VWS V14.01,2013-08-24 15:00:00,
2013-08-24 11:05:00,86.4,77.5,30.13,ENE,68,0.0,5.0,75,0.00,,OVC029,0.05,VWS V14.01,2013-08-24 15:05:00,
2013-08-24 11:10:00,86.2,77.8,30.12,ENE,75,2.0,6.0,76,0.00,,OVC029,0.05,VWS V14.01,2013-08-24 15:10:00,
2013-08-24 11:15:00,86.2,78.5,30.12,NE,42,5.0,8.0,78,0.00,,OVC029,0.05,VWS V14.01,2013-08-24 15:15:00,
2013-08-24 11:20:00,85.7,78.1,30.12,NE,41,4.0,8.0,78,0.00,,OVC029,0.05,VWS V14.01,2013-08-24 15:20:00,
2013-08-24 11:25:00,85.7,78.4,30.12,NE,36,5.0,10.0,79,0.00,,OVC029,0.05,VWS V14.01,2013-08-24 15:25:00,
2013-08-24 11:30:00,85.6,79.1,30.12,NE,34,5.0,10.0,81,0.00,,OVC029,0.05,VWS V14.01,2013-08-24 15:30:00,
2013-08-24 11:35:00,85.6,78.7,30.12,ENE,60,4.0,10.0,80,0.00,,OVC029,0.05,VWS V14.01,2013-08-24 15:35:00,
2013-08-24 11:40:00,85.9,78.2,30.12,NNE,27,4.0,10.0,78,0.00,,OVC029,0.05,VWS V14.01,2013-08-24 15:40:00,
2013-08-24 11:45:00,86.0,79.5,30.12,ENE,60,7.0,10.0,81,0.00,,OVC029,0.05,VWS V14.01,2013-08-24 15:45:00,
2013-08-24 11:50:00,86.3,78.6,30.12,NE,46,4.0,10.0,78,0.00,,OVC029,0.05,VWS V14.01,2013-08-24 15:50:00,
2013-08-24 11:55:00,86.3,78.2,30.12,NE,50,11.0,11.0,77,0.00,,OVC029,0.05,VWS V14.01,2013-08-24 15:55:00,
2013-08-24 12:00:00,86.3,79.0,30.11,NE,36,3.0,5.0,79,0.00,,BKN050,0.05,VWS V14.01,2013-08-24 16:00:00,
2013-08-24 12:05:00,86.3,78.6,30.11,ENE,72,3.0,9.0,78,0.00,,BKN050,0.05,VWS V14.01,2013-08-24 16:05:00,
2013-08-24 12:10:00,86.1,79.2,30.11,NE,49,4.0,9.0,80,0.00,,BKN050,0.05,VWS V14.01,2013-08-24 16:10:00,
2013-08-24 12:15:00,85.8,78.5,30.12,North,6,2.0,10.0,79,0.00,,BKN050,0.00,VWS V14.01,2013-08-24 16:15:00,
2013-08-24 12:20:00,86.1,78.4,30.11,NE,48,4.0,10.0,78,0.00,,BKN050,0.05,VWS V14.01,2013-08-24 16:20:00,
2013-08-24 12:25:00,85.9,78.2,30.11,ENE,74,6.0,10.0,78,0.00,,BKN050,0.05,VWS V14.01,2013-08-24 16:25:00,
2013-08-24 12:30:00,85.9,78.6,30.11,ENE,69,4.0,11.0,79,0.00,,BKN050,0.05,VWS V14.01,2013-08-24 16:30:00,
2013-08-24 12:35:00,86.1,79.2,30.11,NNE,21,5.0,11.0,80,0.00,,BKN050,0.05,VWS V14.01,2013-08-24 16:35:00,
2013-08-24 12:40:00,86.1,78.8,30.11,NE,41,10.0,11.0,79,0.00,,BKN050,0.05,VWS V14.01,2013-08-24 16:40:00,
2013-08-24 12:45:00,86.1,79.2,30.11,NE,53,4.0,11.0,80,0.00,,BKN050,0.05,VWS V14.01,2013-08-24 16:45:00,
2013-08-24 12:50:00,86.1,78.8,30.11,NNE,31,3.0,11.0,79,0.00,,BKN050,0.05,VWS V14.01,2013-08-24 16:50:00,
2013-08-24 12:55:00,86.2,78.2,30.10,NE,56,8.0,11.0,77,0.00,,BKN050,0.05,VWS V14.01,2013-08-24 16:55:00,
2013-08-24 13:00:00,86.0,78.7,30.10,NE,39,6.0,6.0,79,0.00,,FEW031,0.05,VWS V14.01,2013-08-24 17:00:00,
2013-08-24 13:05:00,86.0,78.7,30.11,NNE,15,6.0,9.0,79,0.00,,FEW031,0.05,VWS V14.01,2013-08-24 17:05:00,
2013-08-24 13:10:00,86.2,78.9,30.11,NE,48,4.0,9.0,79,0.00,,FEW031,0.05,VWS V14.01,2013-08-24 17:10:00,
2013-08-24 13:15:00,86.1,78.1,30.11,ESE,118,5.0,9.0,77,0.00,,FEW031,0.05,VWS V14.01,2013-08-24 17:15:00,
2013-08-24 13:20:00,86.3,78.6,30.11,ENE,57,5.0,10.0,78,0.00,,CLR,0.05,VWS V14.01,2013-08-24 17:20:00,
2013-08-24 13:25:00,86.7,78.2,30.10,NE,40,7.0,10.0,76,0.00,,CLR,0.05,VWS V14.01,2013-08-24 17:25:00,
2013-08-24 13:30:00,86.8,78.3,30.11,NE,52,9.0,10.0,76,0.00,,CLR,0.05,VWS V14.01,2013-08-24 17:30:00,
2013-08-24 13:35:00,86.7,78.2,30.11,ENE,76,5.0,12.0,76,0.00,,CLR,0.05,VWS V14.01,2013-08-24 17:35:00,
2013-08-24 13:40:00,86.9,79.6,30.11,NNE,31,3.0,12.0,79,0.00,,CLR,0.05,VWS V14.01,2013-08-24 17:40:00,
2013-08-24 13:45:00,86.8,78.3,30.11,East,88,4.0,12.0,76,0.00,,CLR,0.05,VWS V14.01,2013-08-24 17:45:00,
2013-08-24 13:50:00,86.2,77.8,30.12,ENE,76,4.0,12.0,76,0.00,,CLR,0.05,VWS V14.01,2013-08-24 17:50:00,
2013-08-24 13:55:00,85.4,77.8,30.11,NE,49,7.0,12.0,78,0.00,,CLR,0.05,VWS V14.01,2013-08-24 17:55:00,
2013-08-24 14:00:00,84.9,78.4,30.11,NE,44,4.0,5.0,81,0.00,,SCT025,0.05,VWS V14.01,2013-08-24 18:00:00,
2013-08-24 14:05:00,84.7,77.5,30.11,East,85,6.0,8.0,79,0.00,,SCT025,0.05,VWS V14.01,2013-08-24 18:05:00,
2013-08-24 14:10:00,84.4,77.6,30.11,East,91,2.0,8.0,80,0.00,,SCT025,0.05,VWS V14.01,2013-08-24 18:10:00,
2013-08-24 14:15:00,84.2,77.4,30.11,NE,38,0.0,8.0,80,0.00,,SCT025,0.05,VWS V14.01,2013-08-24 18:15:00,
2013-08-24 14:20:00,84.0,77.9,30.11,NE,51,5.0,8.0,82,0.00,,SCT025,0.05,VWS V14.01,2013-08-24 18:20:00,
2013-08-24 14:25:00,83.9,77.4,30.10,ENE,60,4.0,8.0,81,0.00,,SCT025,0.05,VWS V14.01,2013-08-24 18:25:00,
2013-08-24 14:30:00,83.8,77.7,30.10,NE,44,3.0,8.0,82,0.00,,SCT025,0.05,VWS V14.01,2013-08-24 18:30:00,
2013-08-24 14:35:00,83.7,77.6,30.09,ENE,63,5.0,8.0,82,0.00,,CLR,0.05,VWS V14.01,2013-08-24 18:35:00,
2013-08-24 14:40:00,83.8,77.7,30.10,ESE,109,4.0,8.0,82,0.00,,CLR,0.05,VWS V14.01,2013-08-24 18:40:00,
2013-08-24 14:45:00,84.0,77.9,30.10,NE,48,3.0,8.0,82,0.00,,CLR,0.05,VWS V14.01,2013-08-24 18:45:00,
2013-08-24 14:50:00,84.4,78.3,30.09,ENE,68,6.0,8.0,82,0.00,,CLR,0.05,VWS V14.01,2013-08-24 18:50:00,
2013-08-24 14:55:00,85.0,78.1,30.09,North,11,2.0,9.0,80,0.00,,CLR,0.05,VWS V14.01,2013-08-24 18:55:00,
2013-08-24 15:00:00,85.6,78.7,30.09,ENE,61,4.0,8.0,80,0.00,,CLR,0.05,VWS V14.01,2013-08-24 19:00:00,
2013-08-24 15:05:00,85.7,78.1,30.09,ENE,62,3.0,9.0,78,0.00,,CLR,0.05,VWS V14.01,2013-08-24 19:05:00,
2013-08-24 15:10:00,85.9,77.9,30.09,ENE,66,5.0,9.0,77,0.00,,CLR,0.05,VWS V14.01,2013-08-24 19:10:00,
2013-08-24 15:15:00,85.8,77.8,30.09,NNE,30,4.0,10.0,77,0.00,,CLR,0.05,VWS V14.01,2013-08-24 19:15:00,
2013-08-24 15:20:00,86.0,77.6,30.08,ENE,76,6.0,10.0,76,0.00,,CLR,0.05,VWS V14.01,2013-08-24 19:20:00,
2013-08-24 15:25:00,86.3,78.2,30.08,NNE,29,8.0,11.0,77,0.00,,CLR,0.05,VWS V14.01,2013-08-24 19:25:00,
2013-08-24 15:30:00,86.2,77.8,30.08,NE,51,6.0,12.0,76,0.00,,CLR,0.05,VWS V14.01,2013-08-24 19:30:00,
2013-08-24 15:35:00,86.3,77.0,30.08,NE,49,6.0,12.0,74,0.00,,CLR,0.05,VWS V14.01,2013-08-24 19:35:00,
2013-08-24 15:40:00,86.4,77.5,30.08,ENE,77,4.0,12.0,75,0.00,,CLR,0.05,VWS V14.01,2013-08-24 19:40:00,
2013-08-24 15:45:00,86.4,77.1,30.08,ENE,71,3.0,12.0,74,0.00,,CLR,0.05,VWS V14.01,2013-08-24 19:45:00,
2013-08-24 15:50:00,86.4,77.5,30.07,ESE,102,2.0,12.0,75,0.00,,CLR,0.05,VWS V14.01,2013-08-24 19:50:00,
2013-08-24 15:55:00,86.3,75.4,30.08,ENE,69,6.0,12.0,70,0.00,,CLR,0.05,VWS V14.01,2013-08-24 19:55:00,
2013-08-24 16:00:00,86.1,77.7,30.08,NE,55,6.0,8.0,76,0.00,,FEW120,0.05,VWS V14.01,2013-08-24 20:00:00,
2013-08-24 16:05:00,85.7,76.5,30.09,ENE,71,3.0,9.0,74,0.00,,FEW120,0.05,VWS V14.01,2013-08-24 20:05:00,
2013-08-24 16:10:00,85.5,77.5,30.09,ENE,66,5.0,12.0,77,0.00,,FEW120,0.05,VWS V14.01,2013-08-24 20:10:00,
2013-08-24 16:15:00,85.4,77.4,30.09,NE,41,6.0,12.0,77,0.00,,FEW120,0.05,VWS V14.01,2013-08-24 20:15:00,
2013-08-24 16:20:00,85.2,77.9,30.09,NNE,28,5.0,12.0,79,0.00,,FEW120,0.05,VWS V14.01,2013-08-24 20:20:00,
2013-08-24 16:25:00,85.0,78.1,30.11,NE,36,2.0,12.0,80,0.00,,FEW120,0.05,VWS V14.01,2013-08-24 20:25:00,
2013-08-24 16:30:00,84.8,77.6,30.10,ENE,64,7.0,12.0,79,0.00,,FEW120,0.05,VWS V14.01,2013-08-24 20:30:00,
2013-08-24 16:35:00,84.6,77.8,30.10,NE,46,9.0,12.0,80,0.00,,FEW120,0.05,VWS V14.01,2013-08-24 20:35:00,
2013-08-24 16:40:00,84.3,77.8,30.10,NE,47,6.0,12.0,81,0.00,,FEW120,0.05,VWS V14.01,2013-08-24 20:40:00,
2013-08-24 16:45:00,84.3,77.8,30.11,NNE,32,2.0,12.0,81,0.00,,FEW120,0.05,VWS V14.01,2013-08-24 20:45:00,
2013-08-24 16:50:00,84.2,77.7,30.10,NE,41,3.0,12.0,81,0.00,,FEW120,0.05,VWS V14.01,2013-08-24 20:50:00,
2013-08-24 16:55:00,84.1,77.6,30.10,NNE,24,5.0,12.0,81,0.00,,FEW120,0.05,VWS V14.01,2013-08-24 20:55:00,
2013-08-24 17:00:00,84.1,77.6,30.10,NNE,20,4.0,4.0,81,0.00,,FEW120,0.05,VWS V14.01,2013-08-24 21:00:00,
2013-08-24 17:05:00,83.6,77.2,30.10,NNE,24,6.0,16.0,81,0.00,,FEW110,0.05,VWS V14.01,2013-08-24 21:05:00,
2013-08-24 17:10:00,82.2,76.5,30.10,NE,35,4.0,17.0,83,0.00,,FEW110,0.05,VWS V14.01,2013-08-24 21:10:00,
2013-08-24 17:15:00,81.3,75.7,30.10,NNE,29,5.0,17.0,83,0.00,,FEW110,0.05,VWS V14.01,2013-08-24 21:15:00,
2013-08-24 17:20:00,80.7,75.4,30.09,NNE,20,9.0,18.0,84,0.00,,FEW110,0.05,VWS V14.01,2013-08-24 21:20:00,
2013-08-24 17:25:00,80.4,74.4,30.09,NNE,20,9.0,18.0,82,0.00,,FEW110,0.05,VWS V14.01,2013-08-24 21:25:00,
2013-08-24 17:30:00,80.2,74.2,30.10,NNE,32,15.0,19.0,82,0.00,,FEW110,0.05,VWS V14.01,2013-08-24 21:30:00,
2013-08-24 17:35:00,79.6,75.1,30.10,NNW,339,6.0,19.0,86,0.03,,BKN110,0.08,VWS V14.01,2013-08-24 21:35:00,
2013-08-24 17:40:00,78.8,74.9,30.10,NE,46,8.0,19.0,88,0.06,,BKN110,0.11,VWS V14.01,2013-08-24 21:40:00,
2013-08-24 17:45:00,78.5,75.7,30.09,NNE,32,3.0,20.0,91,0.07,,BKN110,0.12,VWS V14.01,2013-08-24 21:45:00,
2013-08-24 17:50:00,78.4,75.6,30.09,NNE,27,6.0,20.0,91,0.07,,BKN110,0.12,VWS V14.01,2013-08-24 21:50:00,
2013-08-24 17:55:00,77.9,74.7,30.09,NE,54,10.0,20.0,90,0.07,,BKN015,0.12,VWS V14.01,2013-08-24 21:55:00,
2013-08-24 18:00:00,77.8,74.3,30.09,NE,43,3.0,7.0,89,0.07,,BKN015,0.12,VWS V14.01,2013-08-24 22:00:00,
2013-08-24 18:05:00,78.1,74.9,30.09,NNE,32,4.0,17.0,90,0.07,,BKN110,0.12,VWS V14.01,2013-08-24 22:05:00,
2013-08-24 18:10:00,78.5,75.0,30.09,NE,44,5.0,17.0,89,0.07,,BKN110,0.12,VWS V14.01,2013-08-24 22:10:00,
2013-08-24 18:15:00,78.9,75.1,30.09,NE,55,6.0,17.0,88,0.07,,BKN110,0.12,VWS V14.01,2013-08-24 22:15:00,
2013-08-24 18:20:00,79.3,75.4,30.09,ENE,58,6.0,17.0,88,0.07,,BKN110,0.12,VWS V14.01,2013-08-24 22:20:00,
2013-08-24 18:25:00,79.6,75.4,30.09,NE,39,7.0,17.0,87,0.07,,BKN110,0.12,VWS V14.01,2013-08-24 22:25:00,
2013-08-24 18:30:00,79.7,75.2,30.08,NE,35,7.0,17.0,86,0.07,,BKN110,0.12,VWS V14.01,2013-08-24 22:30:00,
2013-08-24 18:35:00,79.7,75.5,30.08,ENE,62,9.0,17.0,87,0.07,,BKN110,0.12,VWS V14.01,2013-08-24 22:35:00,
2013-08-24 18:40:00,79.7,75.5,30.08,ENE,71,6.0,17.0,87,0.07,,BKN110,0.12,VWS V14.01,2013-08-24 22:40:00,
2013-08-24 18:45:00,79.6,75.7,30.07,NE,46,5.0,17.0,88,0.07,,BKN110,0.12,VWS V14.01,2013-08-24 22:45:00,
2013-08-24 18:50:00,79.6,75.7,30.08,NE,46,10.0,17.0,88,0.07,,BKN110,0.12,VWS V14.01,2013-08-24 22:50:00,
2013-08-24 18:55:00,79.5,74.9,30.07,NNE,15,3.0,17.0,86,0.07,,BKN110,0.12,VWS V14.01,2013-08-24 22:55:00,
2013-08-24 19:00:00,79.5,75.3,30.08,ENE,77,0.0,17.0,87,0.07,,BKN110,0.12,VWS V14.01,2013-08-24 23:00:00,
2013-08-24 19:05:00,79.6,75.7,30.09,NE,48,3.0,6.0,88,0.00,,CLR,0.12,VWS V14.01,2013-08-24 23:05:00,
2013-08-24 19:10:00,79.7,75.8,30.09,NE,54,4.0,8.0,88,0.00,,CLR,0.12,VWS V14.01,2013-08-24 23:10:00,
2013-08-24 19:15:00,79.9,76.4,30.09,NE,52,9.0,9.0,89,0.00,,CLR,0.12,VWS V14.01,2013-08-24 23:15:00,
2013-08-24 19:20:00,80.0,75.4,30.09,NE,54,5.0,11.0,86,0.00,,CLR,0.12,VWS V14.01,2013-08-24 23:20:00,
2013-08-24 19:25:00,80.1,75.5,30.08,ENE,77,6.0,11.0,86,0.00,,CLR,0.12,VWS V14.01,2013-08-24 23:25:00,
2013-08-24 19:30:00,80.3,75.4,30.09,ESE,102,5.0,13.0,85,0.00,,CLR,0.12,VWS V14.01,2013-08-24 23:30:00,
2013-08-24 19:35:00,80.3,75.4,30.09,NE,41,7.0,13.0,85,0.00,,CLR,0.12,VWS V14.01,2013-08-24 23:35:00,
2013-08-24 19:40:00,80.3,76.4,30.08,NE,53,4.0,13.0,88,0.00,,CLR,0.12,VWS V14.01,2013-08-24 23:40:00,
2013-08-24 19:45:00,80.3,76.1,30.08,NE,56,9.0,13.0,87,0.00,,CLR,0.12,VWS V14.01,2013-08-24 23:45:00,
2013-08-24 19:50:00,80.2,75.3,30.09,NE,39,3.0,13.0,85,0.00,,CLR,0.12,VWS V14.01,2013-08-24 23:50:00,
2013-08-24 19:55:00,80.3,75.7,30.08,NNE,30,8.0,13.0,86,0.00,,CLR,0.12,VWS V14.01,2013-08-24 23:55:00,
2013-08-24 20:00:00,80.4,76.2,30.07,ESE,105,3.0,13.0,87,0.00,,CLR,0.12,VWS V14.01,2013-08-25 00:00:00,
2013-08-24 20:05:00,80.4,76.2,30.08,East,91,9.0,14.0,87,0.00,,FEW015,0.12,VWS V14.01,2013-08-25 00:05:00,
2013-08-24 20:10:00,80.4,76.5,30.08,ESE,105,6.0,16.0,88,0.00,,FEW015,0.12,VWS V14.01,2013-08-25 00:10:00,
2013-08-24 20:15:00,80.3,76.4,30.08,NE,41,3.0,16.0,88,0.00,,FEW015,0.12,VWS V14.01,2013-08-25 00:15:00,
2013-08-24 20:20:00,80.2,76.3,30.09,ENE,76,5.0,16.0,88,0.00,,FEW015,0.12,VWS V14.01,2013-08-25 00:20:00,
2013-08-24 20:25:00,80.1,76.2,30.10,East,82,2.0,16.0,88,0.00,,FEW015,0.12,VWS V14.01,2013-08-25 00:25:00,
2013-08-24 20:30:00,80.0,75.8,30.10,ESE,120,5.0,16.0,87,0.00,,FEW015,0.12,VWS V14.01,2013-08-25 00:30:00,
2013-08-24 20:35:00,80.0,76.1,30.09,ESE,117,1.0,16.0,88,0.00,,FEW015,0.12,VWS V14.01,2013-08-25 00:35:00,
2013-08-24 20:40:00,80.0,76.1,30.09,ESE,116,3.0,16.0,88,0.00,,FEW015,0.12,VWS V14.01,2013-08-25 00:40:00,
2013-08-24 20:45:00,80.0,76.1,30.09,ESE,118,8.0,16.0,88,0.00,,FEW015,0.12,VWS V14.01,2013-08-25 00:45:00,
2013-08-24 20:49:00,80.1,76.2,30.10,SE,125,3.0,16.0,88,0.00,,FEW015,0.12,VWS V14.01,2013-08-25 00:49:00,
2013-08-24 20:54:00,80.1,75.9,30.10,ESE,110,5.0,16.0,87,0.00,,FEW015,0.12,VWS V14.01,2013-08-25 00:54:00,
2013-08-24 20:59:00,80.2,76.0,30.09,ESE,109,6.0,16.0,87,0.00,,FEW015,0.12,VWS V14.01,2013-08-25 00:59:00,
2013-08-24 21:04:00,80.3,76.1,30.10,East,95,2.0,7.0,87,0.00,,CLR,0.12,VWS V14.01,2013-08-25 01:04:00,
2013-08-24 21:09:00,80.3,76.1,30.11,East,83,2.0,8.0,87,0.00,,CLR,0.12,VWS V14.01,2013-08-25 01:09:00,
2013-08-24 21:14:00,80.3,75.7,30.10,ESE,107,3.0,8.0,86,0.00,,CLR,0.12,VWS V14.01,2013-08-25 01:14:00,
2013-08-24 21:19:00,80.4,75.8,30.11,East,100,2.0,8.0,86,0.00,,CLR,0.12,VWS V14.01,2013-08-25 01:19:00,
2013-08-24 21:24:00,80.4,75.8,30.11,East,98,4.0,8.0,86,0.00,,CLR,0.12,VWS V14.01,2013-08-25 01:24:00,
2013-08-24 21:29:00,80.5,76.3,30.11,East,96,0.0,8.0,87,0.00,,CLR,0.12,VWS V14.01,2013-08-25 01:29:00,
2013-08-24 21:34:00,80.5,75.9,30.12,ESE,120,4.0,8.0,86,0.00,,CLR,0.12,VWS V14.01,2013-08-25 01:34:00,
2013-08-24 21:39:00,80.5,75.9,30.12,ESE,121,2.0,8.0,86,0.00,,CLR,0.12,VWS V14.01,2013-08-25 01:39:00,
2013-08-24 21:44:00,80.6,76.0,30.11,ESE,121,0.0,8.0,86,0.00,,CLR,0.12,VWS V14.01,2013-08-25 01:44:00,
2013-08-24 21:49:00,80.5,75.9,30.11,ESE,121,0.0,8.0,86,0.00,,CLR,0.12,VWS V14.01,2013-08-25 01:49:00,
2013-08-24 21:54:00,80.6,75.7,30.12,ESE,121,0.0,8.0,85,0.00,,CLR,0.12,VWS V14.01,2013-08-25 01:54:00,
2013-08-24 22:00:00,80.6,75.7,30.12,ESE,121,0.0,8.0,85,0.00,,CLR,0.12,VWS V14.01,2013-08-25 02:00:00,
2013-08-24 22:05:00,80.6,75.7,30.12,ESE,121,0.0,0.0,85,0.00,,CLR,0.12,VWS V14.01,2013-08-25 02:05:00,
2013-08-24 22:10:00,80.7,76.1,30.12,SE,139,0.0,3.0,86,0.00,,CLR,0.12,VWS V14.01,2013-08-25 02:10:00,
2013-08-24 22:15:00,80.7,76.1,30.12,SSE,156,0.0,4.0,86,0.00,,CLR,0.12,VWS V14.01,2013-08-25 02:15:00,
2013-08-24 22:19:00,80.7,75.8,30.12,SSE,156,0.0,4.0,85,0.00,,CLR,0.12,VWS V14.01,2013-08-25 02:19:00,
2013-08-24 22:24:00,80.8,76.2,30.12,SSE,151,0.0,4.0,86,0.00,,CLR,0.12,VWS V14.01,2013-08-25 02:24:00,
2013-08-24 22:29:00,80.8,76.2,30.12,SSE,156,0.0,4.0,86,0.00,,CLR,0.12,VWS V14.01,2013-08-25 02:29:00,
2013-08-24 22:34:00,80.8,75.9,30.12,SSE,156,0.0,4.0,85,0.00,,CLR,0.12,VWS V14.01,2013-08-25 02:34:00,
2013-08-24 22:39:00,80.8,76.2,30.12,SSE,157,0.0,4.0,86,0.00,,CLR,0.12,VWS V14.01,2013-08-25 02:39:00,
2013-08-24 22:44:00,80.8,75.9,30.12,SSE,156,0.0,4.0,85,0.00,,CLR,0.12,VWS V14.01,2013-08-25 02:44:00,
2013-08-24 22:49:00,80.8,75.9,30.12,SSE,157,0.0,4.0,85,0.00,,CLR,0.12,VWS V14.01,2013-08-25 02:49:00,
2013-08-24 22:54:00,80.8,75.9,30.12,SSE,157,0.0,4.0,85,0.00,,CLR,0.12,VWS V14.01,2013-08-25 02:54:00,
2013-08-24 22:59:00,80.8,75.9,30.12,SSE,157,0.0,4.0,85,0.00,,CLR,0.12,VWS V14.01,2013-08-25 02:59:00,
2013-08-24 23:04:00,80.8,75.9,30.11,SSE,157,0.0,0.0,85,0.00,,FEW019,0.12,VWS V14.01,2013-08-25 03:04:00,
2013-08-24 23:09:00,80.8,76.2,30.11,SSE,157,0.0,0.0,86,0.00,,FEW019,0.12,VWS V14.01,2013-08-25 03:09:00,
2013-08-24 23:14:00,80.8,76.2,30.11,SSE,157,0.0,0.0,86,0.00,,FEW019,0.12,VWS V14.01,2013-08-25 03:14:00,
2013-08-24 23:19:00,80.7,76.1,30.12,SSE,157,0.0,1.0,86,0.00,,FEW019,0.12,VWS V14.01,2013-08-25 03:19:00,
2013-08-24 23:24:00,80.7,76.1,30.13,SSE,156,0.0,1.0,86,0.00,,FEW019,0.12,VWS V14.01,2013-08-25 03:24:00,
2013-08-24 23:29:00,80.5,75.9,30.12,SW,220,0.0,1.0,86,0.00,,FEW019,0.12,VWS V14.01,2013-08-25 03:29:00,
2013-08-24 23:34:00,80.4,76.2,30.12,SW,217,0.0,1.0,87,0.00,,FEW019,0.12,VWS V14.01,2013-08-25 03:34:00,
2013-08-24 23:39:00,80.2,76.0,30.12,SSW,213,0.0,1.0,87,0.00,,FEW019,0.12,VWS V14.01,2013-08-25 03:39:00,
2013-08-24 23:44:00,80.2,76.0,30.12,SW,221,0.0,1.0,87,0.00,,FEW019,0.12,VWS V14.01,2013-08-25 03:44:00,
2013-08-24 23:49:00,80.1,75.9,30.12,SW,220,0.0,1.0,87,0.00,,FEW019,0.12,VWS V14.01,2013-08-25 03:49:00,
2013-08-24 23:54:00,80.1,75.9,30.12,SW,219,0.0,1.0,87,0.00,,FEW019,0.12,VWS V14.01,2013-08-25 03:54:00,
2013-08-24 23:59:00,80.0,75.8,30.12,SW,219,0.0,1.0,87,0.00,,FEW019,0.12,VWS V14.01,2013-08-25 03:59:00,